[[{"header":{"parameterUnit":"m.s-1","parameterCategory":1,"la1":30.2991,"la2":30.254,"lo1":-89.0895,"lo2":-89.0444,"dy":0.0017,"dx":0.0017,"nx":28,"ny":28,"refTime":"2025-09-04T03:00:00:Z","depth":0,"parameterNumber":2,"parameterNumberName":"U-component_of_WINDS"},"data":[0,0,0,0,0,0,0,0,0,0,0,0,0,0,0,0,0,0,0,0,0,0,0,0,0,0,0,0,0,0,0,0,0,0,0,0,0,0,0,0,0,0,0,0,0,0,0,0,0,0,0,0,0,0,0,0,0,0,1.7181,1.7181,0,1.7191,1.7191,1.7191,1.716,1.7159,1.7159,1.7158,1.7167,1.7168,1.7169,0,0,0,0,0,0,0,0,0,0,0,0,0,1.7131,1.7132,1.7181,1.7181,1.7181,1.7191,1.7191,1.7191,1.7161,1.7159,1.7158,1.7157,1.7167,1.7168,1.7169,0,0,0,0,0,0,0,0,0,0,0,0,0,1.7148,1.7132,1.7181,1.7167,1.7166,1.7191,1.7191,1.7191,1.7161,1.7159,1.7158,1.7157,1.7166,1.7168,1.717,1.7208,0,0,1.7175,1.7175,0,0,0,0,0,0,0,0,1.7147,1.715,1.7169,1.7168,1.7167,1.7173,1.7177,1.7197,1.7161,1.7163,1.7158,1.7156,1.717,1.7171,1.7176,1.7209,1.7209,1.7175,1.7176,1.7177,1.7177,0,0,0,0,0,0,0,1.7146,1.7149,1.7185,1.7169,1.7168,1.7159,1.716,1.7181,1.7174,1.7162,1.716,1.7162,1.7169,1.7175,1.7176,1.7209,1.7175,1.7176,1.7177,1.7178,1.727,1.7271,0,0,0,0,0,0,1.7147,1.7148,1.7184,1.7185,1.7153,1.7161,1.7162,1.7172,1.7174,1.7173,1.7163,1.716,1.7173,1.7174,1.7177,1.7219,1.7177,1.7178,1.7179,1.7268,1.727,1.7272,0,0,0,0,0,0,1.7146,1.715,1.7184,1.7166,1.717,1.7163,1.7175,1.7173,1.7179,1.7174,1.7173,1.717,1.7172,1.7174,1.72,1.7219,1.7179,1.7181,1.7267,1.7269,1.7271,1.7306,0,0,0,0,0,0,1.7145,1.715,1.7166,1.7167,1.7171,1.7208,1.7177,1.7175,1.7182,1.7179,1.7181,1.718,1.7171,1.7197,1.7202,1.7221,1.7182,1.7265,1.7268,1.727,1.7303,1.7309,1.7315,0,0,0,0,0,1.7143,1.7176,1.7167,1.7171,1.719,1.7209,1.7212,1.7201,1.7184,1.7198,1.7195,1.718,1.7217,1.72,1.7205,1.7225,1.7264,1.7267,1.727,1.7301,1.7308,1.7314,0,0,0,0,0,0,1.7178,1.7176,1.7166,1.72,1.7205,1.7204,1.7223,1.721,1.7219,1.7216,1.7202,1.7203,1.723,1.723,1.7212,1.726,1.7237,1.7241,1.7259,1.7266,1.7271,1.727,1.7183,0,0,0,0,0,1.719,1.7206,1.7203,1.7234,1.7237,1.7229,1.7237,1.7229,1.7233,1.7235,1.7233,1.7238,1.725,1.7258,1.727,1.7304,1.7302,1.7319,1.7325,1.733,1.7333,1.7347,1.7354,1.7282,1.7282,1.7282,0,0,1.7214,1.7215,1.7226,1.7241,1.7244,1.7259,1.7231,1.725,1.7261,1.7237,1.7261,1.726,1.7263,1.7293,1.7305,1.7293,1.7352,1.7334,1.7337,1.7338,1.7351,1.7358,1.7364,1.7284,1.7284,1.7284,0,0,1.7266,1.727,1.7294,1.7296,1.7301,1.7295,1.7301,1.7301,1.7299,1.7323,1.7305,1.7317,1.734,1.7342,1.7346,1.7396,1.738,1.74,1.7428,1.7443,1.7448,1.7453,1.7468,1.7474,1.7403,1.7403,1.7403,0,1.7295,1.7319,1.7308,1.7326,1.7332,1.7311,1.7334,1.7338,1.7345,1.7349,1.7336,1.7361,1.7363,1.739,1.7402,1.7407,1.7411,1.7399,1.7449,1.7453,1.7458,1.7472,1.7477,1.7406,1.7405,1.7405,1.7405,0,1.7353,1.737,1.7389,1.7396,1.7404,1.7425,1.7415,1.7424,1.7414,1.741,1.7432,1.7432,1.7442,1.7448,1.7439,1.7474,1.7466,1.7451,1.7427,1.7467,1.7479,1.7485,1.7409,1.7408,1.7407,1.7407,0,0,1.7428,1.7427,1.7434,1.7435,1.7437,1.7449,1.7468,1.7477,1.7484,1.7489,1.7503,1.7521,1.7507,1.7511,1.7502,1.7515,1.7551,1.7498,1.7498,1.7505,1.7585,1.7594,1.7601,1.7541,1.7542,1.7543,1.7583,0,1.7476,1.7509,1.7498,1.753,1.7543,1.7523,1.7539,1.7541,1.7537,1.7546,1.7542,1.7553,1.7535,1.7537,1.7549,1.7544,1.7566,1.7541,1.7552,1.7552,1.7549,1.7608,1.7619,1.7657,1.7589,1.759,1.759,0,1.7538,1.7544,1.7578,1.7574,1.758,1.7594,1.76,1.761,1.7611,1.7607,1.7611,1.7598,1.7615,1.7592,1.7613,1.7596,1.76,1.7598,1.7599,1.7598,1.7572,1.7606,1.7669,1.7674,1.7599,1.7598,1.7597,0,1.7585,1.7602,1.7624,1.7626,1.7624,1.7634,1.7633,1.7633,1.7638,1.7643,1.7645,1.7653,1.7656,1.7661,1.765,1.7635,1.7671,1.7648,1.7666,1.7666,1.7673,1.7672,1.7735,1.768,1.768,1.7679,1.7679,0,1.7639,1.7659,1.7644,1.7657,1.7679,1.7665,1.7687,1.7684,1.7683,1.7694,1.7677,1.7687,1.7673,1.7681,1.7673,1.7689,1.7692,1.7687,1.7684,1.7687,1.7688,1.7688,1.7684,1.7681,1.7681,1.768,1.768,0,1.7695,1.7686,1.7707,1.7702,1.7701,1.7717,1.7712,1.7723,1.7717,1.7731,1.7733,1.7723,1.7732,1.7722,1.773,1.7724,1.7746,1.774,1.7745,1.7743,1.776,1.7757,1.7824,1.783,1.7773,1.7773,1.7774,0,1.7729,1.7743,1.774,1.7745,1.7745,1.7756,1.776,1.7747,1.7752,1.7753,1.7763,1.777,1.7775,1.7789,1.7782,1.7788,1.778,1.7803,1.7781,1.7783,1.7777,1.7776,1.7776,1.7807,1.7808,1.7808,1.7809,0,1.7789,1.7783,1.779,1.7795,1.7801,1.7804,1.7807,1.7812,1.7798,1.7805,1.7813,1.7817,1.7824,1.783,1.7833,1.7831,1.7817,1.7816,1.782,1.7822,1.7823,1.782,1.7755,1.7814,1.7814,1.7813,1.7813,1.7813,1.7833,1.7844,1.7842,1.785,1.785,1.7851,1.786,1.7855,1.7861,1.7866,1.7858,1.7867,1.7865,1.7868,1.7867,1.7873,1.7864,1.787,1.7871,1.7872,1.7874,1.7824,1.7874,1.7874,1.7874,1.7874,1.7874,0,1.7889,1.7887,1.7894,1.7897,1.7902,1.7889,1.789,1.7895,1.7903,1.7903,1.7907,1.7915,1.7921,1.7914,1.7917,1.7924,1.7917,1.7925,1.7923,1.7922,1.7884,1.7879,1.793,1.793,1.793,1.793,1.793,1.793,1.7919,1.7936,1.793,1.7945,1.7942,1.7951,1.7953,1.7953,1.7952,1.7962,1.7966,1.7961,1.7957,1.796,1.7964,1.7962,1.7962,1.7972,1.7967,1.7931,1.7925,1.792,1.7915,1.7973,1.7973,1.8005,1.8005,1.8005]},{"header":{"parameterUnit":"m.s-1","parameterCategory":1,"la1":30.2991,"la2":30.254,"lo1":-89.0895,"lo2":-89.0444,"dy":0.0017,"dx":0.0017,"nx":28,"ny":28,"refTime":"2025-09-04T03:00:00:Z","depth":0,"parameterNumber":3,"parameterNumberName":"V-component_of_WINDS"},"data":[0,0,0,0,0,0,0,0,0,0,0,0,0,0,0,0,0,0,0,0,0,0,0,0,0,0,0,0,0,0,0,0,0,0,0,0,0,0,0,0,0,0,0,0,0,0,0,0,0,0,0,0,0,0,0,0,0,0,-0.2235,-0.2234,0,-0.2194,-0.2194,-0.2193,-0.2181,-0.2182,-0.2182,-0.2182,-0.214,-0.2139,-0.2137,0,0,0,0,0,0,0,0,0,0,0,0,0,-0.2302,-0.2301,-0.2235,-0.2234,-0.2234,-0.2194,-0.2194,-0.2193,-0.2181,-0.2182,-0.2182,-0.2182,-0.214,-0.2139,-0.2137,0,0,0,0,0,0,0,0,0,0,0,0,0,-0.2268,-0.23,-0.2235,-0.2223,-0.2222,-0.2194,-0.2194,-0.2193,-0.2181,-0.2182,-0.2182,-0.2182,-0.2141,-0.2139,-0.2137,-0.2118,0,0,-0.2131,-0.213,0,0,0,0,0,0,0,0,-0.227,-0.2266,-0.2225,-0.2224,-0.2222,-0.2193,-0.2202,-0.2168,-0.2181,-0.2197,-0.2182,-0.2182,-0.2157,-0.2154,-0.2146,-0.2116,-0.2114,-0.2131,-0.2129,-0.2129,-0.2128,0,0,0,0,0,0,0,-0.2272,-0.2267,-0.2219,-0.2225,-0.2223,-0.222,-0.2215,-0.2195,-0.2176,-0.2195,-0.2194,-0.219,-0.2156,-0.2148,-0.2145,-0.2114,-0.2131,-0.2129,-0.2128,-0.2127,-0.2067,-0.2067,0,0,0,0,0,0,-0.2277,-0.2269,-0.222,-0.2217,-0.2247,-0.2218,-0.2213,-0.2202,-0.2176,-0.2172,-0.219,-0.2189,-0.2151,-0.2147,-0.2143,-0.2119,-0.2129,-0.2127,-0.2126,-0.2068,-0.2067,-0.2067,0,0,0,0,0,0,-0.2278,-0.2272,-0.2221,-0.2243,-0.2236,-0.2217,-0.2204,-0.2201,-0.2192,-0.2171,-0.2168,-0.2184,-0.2151,-0.2146,-0.2125,-0.2118,-0.2126,-0.2124,-0.2068,-0.2068,-0.2067,-0.2072,0,0,0,0,0,0,-0.228,-0.2273,-0.2266,-0.2243,-0.2235,-0.2204,-0.2204,-0.22,-0.2189,-0.2188,-0.2165,-0.2162,-0.2151,-0.2128,-0.2123,-0.2115,-0.2122,-0.2069,-0.2068,-0.2067,-0.2073,-0.2072,-0.2071,0,0,0,0,0,-0.2283,-0.2268,-0.2265,-0.2259,-0.2226,-0.2203,-0.2199,-0.2187,-0.2188,-0.2181,-0.2168,-0.2162,-0.212,-0.2126,-0.212,-0.2112,-0.2069,-0.2068,-0.2067,-0.2073,-0.2072,-0.2071,0,0,0,0,0,0,-0.229,-0.2265,-0.2261,-0.2239,-0.2224,-0.2201,-0.2191,-0.2186,-0.2169,-0.2169,-0.2155,-0.215,-0.213,-0.2119,-0.2126,-0.2093,-0.2094,-0.2092,-0.21,-0.2099,-0.2099,-0.2102,-0.2121,0,0,0,0,0,-0.2289,-0.2273,-0.2252,-0.2235,-0.2227,-0.2211,-0.22,-0.2193,-0.2176,-0.2169,-0.2154,-0.2138,-0.2121,-0.2109,-0.2092,-0.2071,-0.2066,-0.2063,-0.2062,-0.2062,-0.206,-0.2049,-0.2047,-0.2064,-0.2064,-0.2064,0,0,-0.2286,-0.2271,-0.2262,-0.2236,-0.2223,-0.2207,-0.2205,-0.2188,-0.2176,-0.2166,-0.2145,-0.2134,-0.2115,-0.2094,-0.2084,-0.2084,-0.2055,-0.2061,-0.2061,-0.2059,-0.2048,-0.2046,-0.2045,-0.2064,-0.2064,-0.2064,0,0,-0.2274,-0.2261,-0.2245,-0.2232,-0.2213,-0.2202,-0.2199,-0.2177,-0.217,-0.2149,-0.2141,-0.2127,-0.2098,-0.2085,-0.2074,-0.2058,-0.2053,-0.2053,-0.205,-0.2039,-0.2038,-0.2036,-0.2031,-0.2029,-0.2052,-0.2052,-0.2052,0,-0.2274,-0.2249,-0.2238,-0.2221,-0.221,-0.2201,-0.2185,-0.2174,-0.2149,-0.2142,-0.2143,-0.2107,-0.2093,-0.2069,-0.2065,-0.2057,-0.2053,-0.2055,-0.2039,-0.2037,-0.2036,-0.2031,-0.2029,-0.2052,-0.2052,-0.2052,-0.2052,0,-0.225,-0.2233,-0.2223,-0.22,-0.2188,-0.2172,-0.2158,-0.2147,-0.2141,-0.213,-0.211,-0.2093,-0.2073,-0.2067,-0.206,-0.2042,-0.2043,-0.2042,-0.2043,-0.2035,-0.203,-0.2027,-0.2052,-0.2052,-0.2052,-0.2052,0,0,-0.2239,-0.2212,-0.2208,-0.2198,-0.2177,-0.2164,-0.2148,-0.2129,-0.212,-0.2104,-0.209,-0.2066,-0.2065,-0.2053,-0.2045,-0.2035,-0.2025,-0.2035,-0.2034,-0.2034,-0.2004,-0.2005,-0.2003,-0.2021,-0.2021,-0.2021,-0.2006,0,-0.2224,-0.2195,-0.2185,-0.2161,-0.2146,-0.2138,-0.2124,-0.211,-0.21,-0.2085,-0.2074,-0.2058,-0.2057,-0.205,-0.204,-0.2028,-0.2018,-0.2029,-0.2008,-0.2008,-0.2013,-0.2,-0.2001,-0.1988,-0.2004,-0.2003,-0.2003,0,-0.2202,-0.2187,-0.2162,-0.2143,-0.2136,-0.2124,-0.2106,-0.2093,-0.2076,-0.207,-0.2057,-0.205,-0.2033,-0.2036,-0.2013,-0.2021,-0.2012,-0.2005,-0.2004,-0.2001,-0.2005,-0.1997,-0.1983,-0.1981,-0.2,-0.2,-0.2,0,-0.2198,-0.217,-0.2152,-0.2144,-0.2122,-0.2113,-0.2104,-0.2088,-0.2077,-0.2062,-0.2055,-0.2038,-0.2028,-0.2015,-0.2003,-0.2007,-0.1981,-0.1983,-0.1976,-0.1976,-0.197,-0.197,-0.1955,-0.1965,-0.1965,-0.1965,-0.1965,0,-0.2182,-0.2166,-0.215,-0.2138,-0.2122,-0.211,-0.2094,-0.2083,-0.207,-0.2056,-0.2049,-0.2036,-0.2022,-0.2008,-0.1999,-0.1981,-0.1977,-0.1972,-0.1969,-0.1972,-0.1973,-0.1966,-0.1966,-0.1964,-0.1965,-0.1965,-0.1965,0,-0.2173,-0.2161,-0.2141,-0.2122,-0.2117,-0.2105,-0.2089,-0.2078,-0.2068,-0.2051,-0.2047,-0.2031,-0.2015,-0.2002,-0.198,-0.1974,-0.1956,-0.1953,-0.1961,-0.196,-0.1953,-0.1954,-0.1932,-0.1928,-0.1941,-0.1941,-0.1941,0,-0.2163,-0.2152,-0.2132,-0.2123,-0.2113,-0.2098,-0.2088,-0.2077,-0.2066,-0.2047,-0.2039,-0.2021,-0.2007,-0.198,-0.1967,-0.1951,-0.1948,-0.1941,-0.1945,-0.1949,-0.1948,-0.1949,-0.1948,-0.1941,-0.1941,-0.1941,-0.1941,0,-0.2147,-0.2143,-0.2128,-0.2112,-0.21,-0.2086,-0.2072,-0.2065,-0.2052,-0.204,-0.2023,-0.2012,-0.199,-0.1974,-0.1956,-0.1946,-0.1941,-0.194,-0.1937,-0.1939,-0.1944,-0.1942,-0.196,-0.194,-0.194,-0.194,-0.194,-0.194,-0.2138,-0.2128,-0.2112,-0.2097,-0.2085,-0.2073,-0.2062,-0.2051,-0.2037,-0.2019,-0.2013,-0.1996,-0.198,-0.1956,-0.1946,-0.1933,-0.1933,-0.1929,-0.1928,-0.1927,-0.1927,-0.1947,-0.193,-0.193,-0.193,-0.193,-0.193,0,-0.2122,-0.2112,-0.2098,-0.2079,-0.2067,-0.2064,-0.2049,-0.2039,-0.2024,-0.2011,-0.1997,-0.1978,-0.1962,-0.1948,-0.1931,-0.1923,-0.1921,-0.1919,-0.192,-0.1917,-0.1928,-0.1932,-0.1922,-0.1922,-0.1922,-0.1922,-0.1922,-0.1922,-0.2112,-0.2094,-0.2088,-0.2065,-0.2055,-0.2038,-0.203,-0.2019,-0.2008,-0.1987,-0.1974,-0.1966,-0.1952,-0.1935,-0.192,-0.1916,-0.1911,-0.191,-0.1906,-0.1916,-0.1917,-0.1918,-0.1921,-0.1909,-0.1909,-0.1896,-0.1896,-0.1896]}]]